This demonstration page uses our WeatherBlox Daily Observations layout. Learn more.

Left ArrowRight Arrow

Hourly Observations for December 29, 2020

Temp ( °F °C ) Dew Point ( °F °C ) Humidity (%) Winds ( mph kmh ) Pressure ( in mb ) Visibility ( mi km ) Precip ( " mm )
12:53 am 00:53 Cloudy 29 -1.7 20 -6.7 69 69 W 5 7 30.51 1033 10 16 0.00 0.00
1:53 am 01:53 Cloudy 29 -1.7 21 -6.1 72 72 Calm 30.52 1033 10 16 0.00 0.00
2:53 am 02:53 Cloudy 29 -1.7 20 -6.7 69 69 WNW 5 7 30.53 1034 10 16 0.00 0.00
3:53 am 03:53 Cloudy 28 -2.2 19 -7.2 69 69 NW 5 7 30.55 1035 10 16 0.00 0.00
4:53 am 04:53 Mostly Clear 25 -3.9 18 -7.8 75 75 N 3 6 30.57 1035 10 16 0.00 0.00
5:53 am 05:53 Clear 21 -6.1 17 -8.3 85 85 N 5 7 30.58 1036 10 16 0.00 0.00
6:53 am 06:53 Clear 20 -6.7 16 -8.9 85 85 Calm 30.61 1037 10 16 0.00 0.00
7:53 am 07:53 Clear 17 -8.3 15 -9.4 92 92 Calm 30.62 1037 10 16 0.00 0.00
8:53 am 08:53 Sunny 21 -6.1 18 -7.8 88 88 Calm 30.63 1037 10 16 0.00 0.00
9:53 am 09:53 Sunny 28 -2.2 21 -6.1 75 75 E 6 9 30.64 1038 10 16 0.00 0.00
10:53 am 10:53 Sunny 31 -0.6 22 -5.6 69 69 ESE 6 9 30.63 1037 10 16 0.00 0.00
11:53 am 11:53 Sunny 32 0 17 -8.3 54 54 ESE 10 17 30.58 1035 10 16 0.00 0.00
12:53 pm 12:53 Sunny 35 1.7 15 -9.4 44 44 E 10 17 30.54 1034 10 16 0.00 0.00
1:53 pm 13:53 Sunny 37 2.8 15 -9.4 41 41 ESE 8 13 30.53 1034 10 16 0.00 0.00
2:53 pm 14:53 Sunny 37 2.8 16 -8.9 42 42 ESE 5 7 30.52 1033 10 16 0.00 0.00
3:53 pm 15:53 Cloudy 36 2.2 17 -8.3 46 46 E 10 17 30.48 1032 10 16 0.00 0.00
4:53 pm 16:53 Mostly Cloudy 35 1.7 18 -7.8 50 50 VRB 5 7 30.47 1032 10 16 0.00 0.00
5:53 pm 17:53 Mostly Cloudy 35 1.7 18 -7.8 50 50 E 9 15 30.46 1031 10 16 0.00 0.00
6:53 pm 18:53 Cloudy 35 1.7 18 -7.8 50 50 ESE 8 13 30.42 1030 10 16 0.00 0.00
7:53 pm 19:53 Cloudy 36 2.2 18 -7.8 48 48 ESE 6 9 30.43 1030 10 16 0.00 0.00
8:53 pm 20:53 Mostly Cloudy 34 1.1 20 -6.7 56 56 E 7 11 30.40 1030 10 16 0.00 0.00
9:53 pm 21:53 Partly Cloudy 34 1.1 20 -6.7 56 56 ESE 5 7 30.37 1028 10 16 0.00 0.00
10:53 pm 22:53 Mostly Clear 35 1.7 21 -6.1 57 57 ESE 7 11 30.32 1027 10 16 0.00 0.00
11:53 pm 23:53 Mostly Clear 35 1.7 21 -6.1 57 57 ESE 9 15 30.26 1025 10 16 0.00 0.00

Powered by AerisWeather